Location: Plumstead
(51.4833°N, 0.0833°E)
Time: 13:21:22
(UTC+00:00)

Daily predictions for brighter satellites

Satellite Brightness Start Highest point End
(mag) Time Altitude Azimuth Time Altitude Azimuth Time Altitude Azimuth
Cosmos 2360 Rocket 2.2 18:52:29 10° SSW 18:58:05 72° ESE 19:03:43 10° NNE
ARGOS Delta rocket 4.2 18:53:20 10° SSE 18:58:19 53° ENE 19:03:05 10° N
Okean O Rocket 2.8 18:56:00 10° ESE 18:59:40 26° ENE 19:03:21 10° N
Cosmos 1340 3.0 18:57:54 10° SSE 19:00:51 32° E 19:03:51 10° NNE
USA 186 2.5 19:00:05 10° SE 19:03:03 36° ENE 19:06:03 10° N
Meteor PRIRODA 3.3 19:00:02 10° SSE 19:03:21 81° ENE 19:06:40 10° NNW
Resurs 01 Rocket 2.1 18:59:52 10° SE 19:04:04 44° ENE 19:08:18 10° N
Cosmos 2322 Rocket 2.4 19:01:15 10° SSW 19:06:58 84° WNW 19:12:43 10° NNE
Cosmos 1459 Rocket 4.4 19:01:16 10° SSW 19:07:17 68° WNW 19:13:21 10° N
Helios 1A 3.0 19:04:44 10° NNE 19:08:43 51° E 19:12:41 10° S
BlueWalker 3 1.9 19:08:02 10° WNW 19:11:48 84° NNE 19:15:32 10° ESE
NOSS 2-1 (E) 3.8 19:08:36 10° NW 19:12:01 46° NE 19:16:30 10° ESE
Cosmos 44 Rocket 3.2 19:07:29 10° NW 19:12:18 82° NE 19:17:00 10° SE
ACS3 Solar Sail 2.5 19:06:53 10° SE 19:12:42 38° ENE 19:18:31 10° N
Cosmos 2333 Rocket 2.3 19:09:12 10° SSW 19:14:58 87° ESE 19:20:47 10° NNE
Okean-O 3.9 19:12:25 10° ESE 19:15:53 23° ENE 19:19:21 10° N
SL-08 R/B 3.4 19:11:13 10° NNE 19:16:10 78° ESE 19:21:06 10° SSW
ATLAS 3B R/B 4.0 19:09:19 10° NW 19:16:46 48° WSW 19:24:03 10° S
SKYMED 3 4.4 19:13:20 10° NNE 19:17:29 73° ESE 19:21:36 10° S
Feng Yun 1-1 Rocket 4.5 19:12:10 10° SE 19:17:47 59° ENE 19:23:33 10° N
Cosmos 2219 Rocket 2.3 19:13:27 10° S 19:19:00 58° ESE 19:24:35 10° NE
Cosmos 1626 3.1 19:18:14 10° NNW 19:21:05 39° W 19:23:54 10° SSW
NOSS 2-1 (D) 3.6 19:18:36 10° NW 19:22:05 56° NE 19:26:16 12° ESE
Meteor 1-5 Rocket 4.2 19:16:54 10° S 19:22:31 81° E 19:28:22 10° NNE
BREEZE-M DEB (TANK) 2.9 19:21:54 10° SW 19:23:43 25° SSE 19:25:16 14° ESE
CSL-04 Rocket 3.7 19:19:03 10° SSE 19:24:20 60° ENE 19:29:35 10° N
Cosmos 1842 3.8 19:21:22 10° N 19:24:43 34° ENE 19:27:54 11° SE
USA 229 DEB 4.3 19:18:58 10° NW 19:26:18 69° SW 19:34:18 10° SSE
USA 229 4.3 19:19:07 10° NW 19:26:27 69° SW 19:34:25 10° SSE
SL-16 R/B 3.5 19:21:46 10° WSW 19:27:12 45° NW 19:32:39 10° NNE
CZ-4B R/B 4.2 19:25:45 10° S 19:30:22 52° W 19:35:03 10° NNW
SJ-6B 3.6 19:27:00 10° S 19:30:33 49° W 19:34:06 10° NNW
Cosmos 1766 Rocket 3.9 19:28:40 10° SSE 19:32:46 44° E 19:36:57 10° NNE
Cosmos 1725 Rocket 4.5 19:28:38 10° SSW 19:34:46 65° WNW 19:40:56 10° N
Cosmos 2369 Rocket 4.3 19:31:42 10° N 19:35:04 16° NNE 19:38:25 10° ENE
USA 267 3.7 19:29:17 10° E 19:35:42 60° N 19:42:08 10° WNW
BREEZE-M R/B 3.8 19:32:21 10° W 19:36:26 73° S 19:49:01 11° E
Cosmos 2322 3.9 19:34:28 10° S 19:39:51 48° ESE 19:45:16 10° NE
USA 276 1.8 19:37:10 10° W 19:40:00 64° S 19:41:31 22° ESE
Cosmos 1066 Rocket 4.3 19:34:35 10° NNW 19:40:29 90° SW 19:46:21 10° S
Cosmos 1400 Rocket 2.7 19:37:51 10° NNW 19:41:44 89° W 19:45:33 10° S
Cosmos 1707 2.8 19:42:51 10° N 19:46:20 48° ENE 19:48:44 18° SE
Cosmos 1315 Rocket 4.1 19:43:30 10° N 19:46:45 24° ENE 19:48:17 19° E
PSLV R/B 4.0 19:44:58 18° SE 19:47:20 43° ENE 19:50:45 10° N
CZ-4 R/B 2.4 19:45:26 10° S 19:49:05 45° W 19:52:48 10° NNW
Cosmos 1733 4.1 19:49:20 22° ESE 19:49:56 23° E 19:52:44 10° NE
Cosmos 1726 1.7 19:47:09 10° SSW 19:49:56 67° W 19:52:46 10° N
Cosmos 1891 Rocket 4.5 19:44:05 10° S 19:50:00 58° E 19:56:03 10° NNE
KORONAS-FOTON 3.6 19:52:55 10° N 19:56:38 83° ENE 19:59:47 14° SSE
Lacrosse 4 Rocket 2.0 19:52:28 10° NW 19:56:45 56° WSW 20:00:26 13° SSE
Cosmos 1536 3.3 19:55:07 19° SSE 19:57:21 36° E 20:00:53 10° NNE
COSMOS 2428 2.8 19:53:21 10° S 19:58:53 54° ESE 20:04:28 10° NE
Cosmos 1818 3.5 19:53:32 10° SSW 19:58:56 67° SE 20:04:23 10° NE
USA 308 3.4 19:57:58 10° W 19:58:09 13° W 19:58:09 13° W
CSL-04 Debris 4.4 19:53:56 10° S 19:59:23 73° WSW 20:04:54 10° NNW
Nadezhda 4 Rocket 4.1 19:54:32 10° N 20:00:40 56° ENE 20:05:35 16° SSE
Cosmos 1356 Rocket 3.4 19:56:43 10° N 20:00:54 68° ENE 20:03:50 19° SSE
Meteor 1-4 Rocket 1.7 19:58:17 10° NNW 20:01:00 84° WSW 20:02:21 26° S
Cosmos 1943 Rocket 2.5 19:57:49 10° NNW 20:03:13 51° NE 20:06:27 23° ESE
Cosmos 1674 3.2 20:01:35 10° NNW 20:04:51 50° W 20:08:05 10° S
Cosmos 1328 Rocket 3.9 20:01:46 10° NNW 20:06:02 62° W 20:10:15 10° S
Cosmos 841 Rocket 4.3 20:01:32 10° SW 20:06:38 55° WNW 20:11:44 10° NNE
Meteor 1-14 Rocket 4.1 20:01:26 10° S 20:06:56 72° E 20:12:28 10° NNE
Cosmos 1743 3.9 20:05:02 10° SSW 20:08:26 41° WNW 20:11:52 10° N
SL-14 R/B 4.5 20:05:34 10° NNE 20:08:38 23° ENE 20:09:03 22° ENE
Cosmos 1513 Rocket 4.3 20:02:52 10° S 20:08:52 72° E 20:14:58 10° NNE
USA 59 Rocket 0.1 20:05:19 10° NW 20:09:00 70° SW 20:11:54 23° SSE
Terra 2.6 20:09:11 25° ESE 20:11:04 35° ENE 20:15:21 10° N
Cosmos 1464 Rocket 4.0 20:06:17 10° S 20:12:26 61° E 20:18:43 10° NNE
Meteor 1-11 Rocket 4.0 20:09:43 13° SSE 20:14:26 46° E 20:19:44 10° NNE
Cosmos 1125 Rocket 3.6 20:10:58 10° NNW 20:16:08 60° ENE 20:18:45 28° SE
Ariane Rocket 3.9 20:14:46 24° E 20:16:36 31° ENE 20:21:03 10° N
USA 290 2.2 20:15:28 10° NNW 20:18:44 84° WSW 20:19:44 42° SSE
SPOT 3 Rocket 4.5 20:17:15 25° E 20:19:07 32° ENE 20:23:38 10° N
Cosmos 2278 Rocket 2.2 20:13:47 10° NNW 20:19:30 88° ENE 20:22:58 25° SSE
ERS-1 Rocket 3.2 20:19:35 29° SE 20:21:52 51° ENE 20:26:45 10° N
BREEZE-M DEB (TANK) 3.8 20:19:01 10° W 20:22:04 73° S 20:26:06 23° E
CZ-4B R/B 4.1 20:17:28 10° S 20:22:45 46° W 20:27:58 10° NNW
Meteor 2-9 Rocket 4.4 20:20:43 24° SSE 20:23:36 45° E 20:28:44 10° NNE
USA 306 4.2 20:22:18 10° SSW 20:23:20 18° SSW 20:23:20 18° SSW
NOSS 2-1 (C) 4.0 20:21:53 10° NW 20:25:30 51° SW 20:27:51 26° SSE
SPOT 5 2.7 20:24:19 25° SSE 20:27:06 85° ENE 20:31:40 10° NNW
IRS-1A Rocket 4.3 20:25:48 26° SE 20:29:08 68° ENE 20:34:50 10° NNW
Cosmos 2034 Rocket 4.0 20:26:34 18° SSE 20:31:13 57° E 20:37:16 10° NNE
Aureole 1 4.3 20:28:50 10° NNW 20:31:50 72° WSW 20:32:23 55° S
Okean 3 Rocket 3.5 20:28:34 10° S 20:33:04 88° W 20:37:33 10° N
Okean O Rocket 2.6 20:31:49 12° S 20:35:43 45° W 20:40:00 10° NNW
NOSS 0 Rocket 3.9 20:33:14 10° SSW 20:39:25 66° ESE 20:45:36 10° NE
Resurs 01 Rocket 3.7 20:36:59 10° SSW 20:40:40 25° W 20:44:22 10° NW
USA 215 3.6 20:35:50 10° ENE 20:41:50 37° SE 20:47:48 10° SSW
Cosmos 2360 Rocket 4.2 20:37:44 10° WSW 20:42:36 29° NW 20:47:29 10° NNE
ATLAS 2AS CENTAUR R/B 4.2 20:37:54 10° W 20:44:22 35° NNW 20:50:37 10° NE
Cosmos 2228 Rocket 4.0 20:42:12 10° N 20:46:21 33° ENE 20:46:31 33° ENE
MOS 1 Rocket 3.4 20:45:58 34° S 20:48:14 85° WSW 20:53:29 10° NNW
BlueWalker 3 2.9 20:46:15 10° W 20:49:39 33° SW 20:49:46 32° SSW
Cosmos 2237 Rocket 2.2 20:46:17 17° S 20:50:26 56° ESE 20:55:57 10° NE
Okean-O 3.3 20:49:39 25° SSW 20:51:57 52° W 20:56:17 10° NNW
Cosmos 1515 Rocket 4.4 20:47:57 10° NNW 20:52:05 46° W 20:54:35 22° SSW
Cosmos 1814 Rocket 4.4 20:47:47 10° SW 20:53:03 64° WNW 20:58:18 10° NNE
Cosmos 1805 3.7 20:55:18 43° NE 20:55:18 43° NE 20:58:01 10° NNE
Aureole 3 Rocket 3.9 20:47:44 13° S 20:54:31 74° E 20:59:55 10° NNE
ACS3 Solar Sail 2.6 20:50:27 10° S 20:56:38 50° W 21:02:52 10° NNW
Sich 1 2.8 20:57:04 67° SE 20:57:22 70° E 21:01:40 10° NNE
CZ-4C R/B 4.0 20:55:49 10° NNE 20:58:28 39° NE 20:58:28 39° NE
Cosmos 2333 Rocket 4.5 20:55:13 10° W 21:00:00 26° NW 21:04:47 10° NNE
Cosmos 2219 Rocket 3.9 20:58:08 10° WSW 21:03:16 34° NW 21:08:25 10° NNE
Cosmos 2279 Rocket 4.4 21:06:50 40° E 21:07:19 40° E 21:13:04 10° NNE
BREEZE-M DEB (TANK) 3.7 20:50:54 10° W 21:08:53 78° S 21:10:46 45° ESE
Cosmos 1500 Rocket 3.6 21:11:22 56° SSW 21:12:14 78° W 21:16:38 10° N
IRS-1C Rocket 4.5 21:14:37 37° SSW 21:16:33 60° WSW 21:21:47 10° NNW
Cosmos 1743 Rocket 3.4 21:16:41 88° NE 21:16:41 88° NE 21:21:00 10° N
USA 267 3.2 21:16:20 46° ESE 21:18:33 86° SSW 21:25:10 10° WNW
Cosmos 1980 3.6 21:13:26 10° SSW 21:19:07 89° NW 21:24:52 10° NNE
Cosmos 2369 Rocket 2.8 21:15:10 10° NNW 21:20:39 44° NE 21:21:39 40° ENE
Cosmos 2298 Rocket 4.0 21:16:04 10° NNW 21:21:23 81° WSW 21:22:13 63° S
Cosmos 1315 Rocket 3.9 21:19:16 10° NNW 21:22:56 37° W 21:23:29 35° WSW
Spot 2 Rocket 3.5 21:21:59 56° SSW 21:22:57 72° WSW 21:28:00 10° NNW
NOSS 3-3 (A) 4.5 21:25:46 38° ENE 21:25:46 38° ENE 21:30:07 10° NE
Cosmos 2150 Rocket 3.9 21:21:18 10° NNW 21:26:30 74° WSW 21:27:07 65° SSW
Cosmos 1975 3.8 21:32:52 40° N 21:32:52 40° N 21:35:28 10° N
Cosmos 1570 Rocket 4.2 21:30:08 28° SW 21:32:57 72° WNW 21:38:15 10° NNE
COSMOS 2428 4.2 21:38:10 10° WSW 21:43:24 36° NW 21:48:41 10° NNE
NOSS 3-4 (A) 3.8 21:39:36 10° NW 21:46:13 72° NE 21:47:59 53° ESE
NOSS 3-4 (C) 3.8 21:39:42 10° NW 21:46:18 72° NE 21:48:05 53° ESE
Cosmos 1943 Rocket 3.3 21:41:53 10° NW 21:46:45 33° WSW 21:47:58 30° SW
Okean 1-7 4.1 21:42:43 10° N 21:45:42 39° NNE 21:45:42 39° NNE
SL-16 R/B 3.1 21:49:08 35° ENE 21:49:08 35° ENE 21:52:39 10° NE
Terra 2.9 21:47:52 33° WSW 21:48:38 35° W 21:52:59 10° NNW
Cosmos 158 Rocket 4.4 21:53:00 42° WSW 21:54:13 54° WNW 21:59:01 10° NNE
Cosmos 2266 Rocket 4.0 21:49:05 10° N 21:55:16 63° ENE 21:55:29 62° E
Ariane Rocket 3.6 21:54:54 44° WSW 21:55:22 46° W 22:00:16 10° NNW
Cosmos 2263 4.4 21:51:38 10° NNW 21:57:20 58° NE 21:57:25 58° ENE
USA 59 Rocket 2.7 21:56:40 10° W 21:58:16 12° WSW 21:58:17 12° WSW
SPOT 3 Rocket 4.2 21:57:52 45° WSW 21:58:21 46° W 22:03:19 10° NNW
Cosmos 1862 Rocket 4.3 21:57:34 10° NNW 22:01:03 50° NW 22:01:03 50° NW
Cosmos 2278 Rocket 4.2 21:59:05 10° WNW 22:02:49 18° W 22:04:48 15° SW
Cosmos 1634 Rocket 4.3 22:01:43 42° SW 22:03:44 63° WNW 22:10:03 10° N
Cosmos 1633 Rocket 4.3 22:07:15 38° N 22:07:15 38° N 22:09:59 10° N
MetOp-A 4.5 22:14:26 50° NNW 22:14:26 50° NNW 22:18:00 10° NNW
Cosmos 1655 Rocket 4.2 22:09:44 10° N 22:15:58 61° ENE 22:15:58 61° ENE
Cosmos 2142 Rocket 4.4 22:22:56 74° WSW 22:23:13 75° WNW 22:29:23 10° N
USA 215 3.1 22:18:45 10° ENE 22:25:21 90° S 22:31:55 10° WSW
Cosmos 773 Rocket 4.4 22:26:08 60° NW 22:26:08 60° NW 22:31:04 10° NNE
Cosmos 1656 Rocket 4.2 22:22:44 10° NW 22:27:40 52° W 22:27:40 52° W
ARIANE 5 R/B 4.0 22:34:11 35° N 22:34:11 35° N 22:36:45 10° NNW
Cosmos 2237 Rocket 3.7 22:29:41 10° WSW 22:34:47 34° NW 22:39:55 10° NNE
Cosmos 2297 4.3 22:31:01 10° NW 22:35:42 49° W 22:35:42 49° W
ATLAS 2AS CENTAUR R/B 4.2 22:30:58 10° NW 22:37:08 32° N 22:43:08 10° ENE
NOSS 3-3 (C) 4.3 22:56:53 56° WNW 22:57:39 60° NW 23:04:20 10° NE
USA 267 4.4 23:03:41 31° WSW 23:03:41 31° WSW 23:08:00 10° WNW
Cosmos 2369 Rocket 3.3 22:59:20 10° NW 23:03:25 36° WNW 23:03:25 36° WNW
ATLAS CENTAUR R/B 4.3 23:11:25 11° NNE 23:11:25 11° NNE 23:11:40 10° NNE
Cosmos 1607 4.4 23:28:34 57° WNW 23:29:00 58° NW 23:35:22 10° NE
SL-16 R/B 3.3 23:30:58 37° WNW 23:31:28 38° NW 23:36:45 10° NNE
Meteor 2-5 Rocket 4.5 23:31:03 10° NNW 23:35:40 51° NW 23:35:40 51° NW
